{"data":{"norad_id":52621,"intl_designator":"2022-052Z","name":"STARLINK-3984","alt_names":[],"object_type":"PAYLOAD","status":"ACTIVE","operator":null,"country":"US","launch_date":"2022-05-14","launch_site_code":"AFETR","launch_vehicle":null,"mission":null,"orbit_class":"UNKNOWN","rcs_meters":null,"size_class":null,"mass_kg":null,"dimensions":null,"purposes":["comms"],"wikipedia_slug":null,"has_3d_model":false,"image_url":null,"decayed_at":null,"tle_current":{"epoch":"2026-05-25T02:36:41.153760Z","epoch_age_seconds":69682,"freshness":"FRESH","line1":"1 52621U 22052Z   26145.10880965  .00000162  00000+0  28267-4 0  9999","line2":"2 52621  53.2146 286.0605 0001289  88.6753 271.4387 15.08837628222526","mean_motion":15.08837628,"eccentricity":0.0001289,"inclination_deg":53.2146,"raan_deg":286.0605,"arg_perigee_deg":88.6753,"mean_anomaly_deg":271.4387,"bstar":2.8267e-5,"rev_number":22252,"period_min":95.437704712385,"perigee_km":538.85892351197,"apogee_km":540.64235494536,"semimajor_km":6917.8876392287,"source":"CELESTRAK","updated_at":"2026-05-25T13:38:17.201531Z"}}}